User: anonymous   Login
Location: Unspecified
(0.0000°N, 0.0000°E)
Time: 19:00:12
(UTC+00:00)
Language:

NANOSAT-1 - Orbit

View from above orbital plane
View from above orbital plane
View from above satellite
View from above satellite

Ground track
Ground track

The orbit data is extracted from the following two-line orbital elements,

1 28493U 04049B   17084.76965473 +.00000106 +00000-0 +24454-4 0  9990
2 28493 098.2106 153.4035 0003197 265.7017 094.3825 14.73290826658634
Epoch (UTC): 25 March 2017 18:28:18
Eccentricity: 0.0003197
inclination: 98.2106°
perigee height: 648 km
apogee height: 653 km
right ascension of ascending node: 153.4035°
argument of perigee: 265.7017°
revolutions per day: 14.73290826
mean anomaly at epoch: 94.3825°
orbit number at epoch: 65863

The dashed part of the orbit path shows where the satellite is in the earth's shadow,  

DLR